Time,TemperatureF,DewpointF,PressureIn,WindDirection,WindDirectionDegrees,WindSpeedMPH,WindSpeedGustMPH,Humidity,HourlyPrecipIn,Conditions,Clouds,dailyrainin,SoftwareType,DateUTC
2013-01-30 00:05:00,51.9,51.0,29.30,SSE,165,2.0,-999.0,98,-99.99,,,1.44,weatherlink.com 1.10,2013-01-30 06:05:00,
2013-01-30 00:20:00,51.7,51.0,29.27,SSE,150,3.0,-999.0,98,-99.99,,,0.01,weatherlink.com 1.10,2013-01-30 06:20:00,
2013-01-30 00:35:00,51.4,51.0,29.29,South,178,3.0,-999.0,98,-99.99,,,0.01,weatherlink.com 1.10,2013-01-30 06:35:00,
2013-01-30 00:50:00,51.3,51.0,29.30,South,178,3.0,-999.0,98,-99.99,,,0.02,weatherlink.com 1.10,2013-01-30 06:50:00,
2013-01-30 01:05:00,51.4,51.0,29.30,South,184,1.0,-999.0,98,-99.99,,,0.03,weatherlink.com 1.10,2013-01-30 07:05:00,
2013-01-30 01:20:00,51.4,51.0,29.30,South,182,4.0,-999.0,98,-99.99,,,0.05,weatherlink.com 1.10,2013-01-30 07:20:00,
2013-01-30 01:35:00,51.3,51.0,29.32,South,184,1.0,-999.0,98,-99.99,,,0.05,weatherlink.com 1.10,2013-01-30 07:35:00,
2013-01-30 01:50:00,51.1,51.0,29.29,South,184,2.0,-999.0,98,-99.99,,,0.07,weatherlink.com 1.10,2013-01-30 07:50:00,
2013-01-30 02:05:00,51.0,51.0,29.29,South,184,3.0,-999.0,98,-99.99,,,0.09,weatherlink.com 1.10,2013-01-30 08:05:00,
2013-01-30 02:20:00,50.9,50.0,29.26,South,172,1.0,-999.0,98,-99.99,,,0.10,weatherlink.com 1.10,2013-01-30 08:20:00,
2013-01-30 02:35:00,50.9,50.0,29.28,South,170,0.0,-999.0,98,-99.99,,,0.10,weatherlink.com 1.10,2013-01-30 08:35:00,
2013-01-30 02:50:00,50.8,50.0,29.29,South,178,0.0,-999.0,98,-99.99,,,0.10,weatherlink.com 1.10,2013-01-30 08:50:00,
2013-01-30 03:05:00,50.5,50.0,29.33,WSW,252,3.0,-999.0,98,-99.99,,,0.10,weatherlink.com 1.10,2013-01-30 09:05:00,
2013-01-30 03:20:00,48.5,48.0,29.34,WSW,252,0.0,-999.0,97,-99.99,,,0.10,weatherlink.com 1.10,2013-01-30 09:20:00,
2013-01-30 03:35:00,46.4,46.0,29.32,West,280,3.0,-999.0,97,-99.99,,,0.11,weatherlink.com 1.10,2013-01-30 09:35:00,
2013-01-30 03:50:00,45.5,45.0,29.31,WNW,297,0.0,-999.0,97,-99.99,,,0.12,weatherlink.com 1.10,2013-01-30 09:50:00,
2013-01-30 04:05:00,44.9,44.0,29.27,WNW,297,0.0,-999.0,97,-99.99,,,0.12,weatherlink.com 1.10,2013-01-30 10:05:00,
2013-01-30 04:20:00,44.3,44.0,29.24,NE,55,0.0,-999.0,97,-99.99,,,0.12,weatherlink.com 1.10,2013-01-30 10:20:00,
2013-01-30 04:35:00,44.2,44.0,29.25,NE,55,0.0,-999.0,98,-99.99,,,0.12,weatherlink.com 1.10,2013-01-30 10:35:00,
2013-01-30 04:50:00,44.2,44.0,29.23,NE,55,1.0,-999.0,98,-99.99,,,0.12,weatherlink.com 1.10,2013-01-30 10:50:00,
2013-01-30 05:05:00,44.4,44.0,29.24,NE,55,0.0,-999.0,98,-99.99,,,0.12,weatherlink.com 1.10,2013-01-30 11:05:00,
2013-01-30 05:20:00,44.5,44.0,29.25,NE,55,0.0,-999.0,98,-99.99,,,0.12,weatherlink.com 1.10,2013-01-30 11:20:00,
2013-01-30 05:35:00,44.6,44.0,29.24,NE,55,0.0,-999.0,98,-99.99,,,0.12,weatherlink.com 1.10,2013-01-30 11:35:00,
2013-01-30 05:50:00,44.7,44.0,29.26,ENE,57,1.0,-999.0,98,-99.99,,,0.12,weatherlink.com 1.10,2013-01-30 11:50:00,
2013-01-30 06:05:00,45.0,45.0,29.23,ENE,57,0.0,-999.0,98,-99.99,,,0.12,weatherlink.com 1.10,2013-01-30 12:05:00,
2013-01-30 06:20:00,44.9,44.0,29.23,ENE,57,0.0,-999.0,98,-99.99,,,0.13,weatherlink.com 1.10,2013-01-30 12:20:00,
2013-01-30 06:35:00,44.9,44.0,29.26,SSE,153,1.0,-999.0,98,-99.99,,,0.14,weatherlink.com 1.10,2013-01-30 12:35:00,
2013-01-30 06:50:00,45.4,45.0,29.24,SSE,161,0.0,-999.0,98,-99.99,,,0.14,weatherlink.com 1.10,2013-01-30 12:50:00,
2013-01-30 07:05:00,45.7,45.0,29.22,South,171,1.0,-999.0,98,-99.99,,,0.14,weatherlink.com 1.10,2013-01-30 13:05:00,
2013-01-30 07:20:00,46.8,46.0,29.22,South,171,4.0,-999.0,98,-99.99,,,0.14,weatherlink.com 1.10,2013-01-30 13:20:00,
2013-01-30 07:35:00,47.5,47.0,29.21,SSE,166,4.0,-999.0,98,-99.99,,,0.14,weatherlink.com 1.10,2013-01-30 13:35:00,
2013-01-30 07:50:00,48.9,48.0,29.21,South,182,9.0,-999.0,98,-99.99,,,0.14,weatherlink.com 1.10,2013-01-30 13:50:00,
2013-01-30 08:05:00,49.6,49.0,29.20,SSE,164,6.0,-999.0,99,-99.99,,,0.14,weatherlink.com 1.10,2013-01-30 14:05:00,
2013-01-30 08:20:00,49.6,49.0,29.20,South,174,4.0,-999.0,99,-99.99,,,0.14,weatherlink.com 1.10,2013-01-30 14:20:00,
2013-01-30 08:35:00,49.9,49.0,29.20,South,183,13.0,-999.0,98,-99.99,,,0.14,weatherlink.com 1.10,2013-01-30 14:35:00,
2013-01-30 08:50:00,50.0,50.0,29.18,South,173,4.0,-999.0,98,-99.99,,,0.14,weatherlink.com 1.10,2013-01-30 14:50:00,
2013-01-30 09:05:00,50.3,50.0,29.18,SSW,196,3.0,-999.0,98,-99.99,,,0.14,weatherlink.com 1.10,2013-01-30 15:05:00,
2013-01-30 09:20:00,44.0,42.0,29.22,WSW,256,4.0,-999.0,92,-99.99,,,0.17,weatherlink.com 1.10,2013-01-30 15:20:00,
2013-01-30 09:35:00,40.7,39.0,29.22,WNW,292,1.0,-999.0,95,-99.99,,,0.17,weatherlink.com 1.10,2013-01-30 15:35:00,
2013-01-30 09:50:00,39.4,38.0,29.23,WNW,286,11.0,-999.0,94,-99.99,,,0.17,weatherlink.com 1.10,2013-01-30 15:50:00,
2013-01-30 10:05:00,39.3,38.0,29.23,WSW,253,10.0,-999.0,94,-99.99,,,0.17,weatherlink.com 1.10,2013-01-30 16:05:00,
2013-01-30 10:20:00,38.9,37.0,29.23,WSW,252,4.0,-999.0,94,-99.99,,,0.17,weatherlink.com 1.10,2013-01-30 16:20:00,
2013-01-30 10:36:00,38.5,37.0,29.25,West,266,7.0,-999.0,93,-99.99,,,0.17,weatherlink.com 1.10,2013-01-30 16:36:00,
2013-01-30 10:50:00,38.4,36.0,29.25,West,265,10.0,-999.0,92,-99.99,,,0.17,weatherlink.com 1.10,2013-01-30 16:50:00,
2013-01-30 11:06:00,37.9,36.0,29.25,West,266,6.0,-999.0,92,-99.99,,,0.17,weatherlink.com 1.10,2013-01-30 17:06:00,
2013-01-30 11:20:00,37.4,35.0,29.25,WSW,253,10.0,-999.0,92,-99.99,,,0.17,weatherlink.com 1.10,2013-01-30 17:20:00,
2013-01-30 11:36:00,37.2,35.0,29.25,WSW,252,6.0,-999.0,92,-99.99,,,0.17,weatherlink.com 1.10,2013-01-30 17:36:00,
2013-01-30 11:51:00,37.1,35.0,29.25,West,280,5.0,-999.0,92,-99.99,,,0.17,weatherlink.com 1.10,2013-01-30 17:51:00,
2013-01-30 12:06:00,36.9,35.0,29.24,West,269,8.0,-999.0,92,-99.99,,,0.17,weatherlink.com 1.10,2013-01-30 18:06:00,
2013-01-30 12:21:00,36.9,35.0,29.24,WSW,251,3.0,-999.0,93,-99.99,,,0.17,weatherlink.com 1.10,2013-01-30 18:21:00,
2013-01-30 12:36:00,36.6,35.0,29.24,WSW,258,3.0,-999.0,92,-99.99,,,0.17,weatherlink.com 1.10,2013-01-30 18:36:00,
2013-01-30 12:51:00,36.4,34.0,29.24,WSW,247,4.0,-999.0,92,-99.99,,,0.17,weatherlink.com 1.10,2013-01-30 18:51:00,
2013-01-30 13:06:00,36.0,34.0,29.26,NNW,334,2.0,-999.0,92,-99.99,,,0.17,weatherlink.com 1.10,2013-01-30 19:06:00,
2013-01-30 13:21:00,35.1,33.0,29.25,West,275,3.0,-999.0,92,-99.99,,,0.17,weatherlink.com 1.10,2013-01-30 19:21:00,
2013-01-30 13:36:00,34.2,32.0,29.27,WNW,292,7.0,-999.0,93,-99.99,,,0.17,weatherlink.com 1.10,2013-01-30 19:36:00,
2013-01-30 13:51:00,33.5,32.0,29.27,WNW,284,2.0,-999.0,93,-99.99,,,0.17,weatherlink.com 1.10,2013-01-30 19:51:00,
2013-01-30 14:06:00,33.1,31.0,29.27,WSW,244,3.0,-999.0,93,-99.99,,,0.17,weatherlink.com 1.10,2013-01-30 20:06:00,
2013-01-30 14:21:00,32.5,31.0,29.29,WNW,294,5.0,-999.0,93,-99.99,,,0.17,weatherlink.com 1.10,2013-01-30 20:21:00,
2013-01-30 14:36:00,32.0,30.0,29.31,WNW,288,4.0,-999.0,93,-99.99,,,0.17,weatherlink.com 1.10,2013-01-30 20:36:00,
2013-01-30 14:51:00,31.6,30.0,29.32,West,261,4.0,-999.0,93,-99.99,,,0.17,weatherlink.com 1.10,2013-01-30 20:51:00,
2013-01-30 15:06:00,31.7,30.0,29.33,WNW,289,3.0,-999.0,92,-99.99,,,0.17,weatherlink.com 1.10,2013-01-30 21:06:00,
2013-01-30 15:21:00,31.1,29.0,29.34,WNW,284,6.0,-999.0,92,-99.99,,,0.17,weatherlink.com 1.10,2013-01-30 21:21:00,
2013-01-30 15:36:00,30.0,28.0,29.36,West,281,3.0,-999.0,90,-99.99,,,0.17,weatherlink.com 1.10,2013-01-30 21:36:00,
2013-01-30 15:51:00,29.7,27.0,29.38,West,269,5.0,-999.0,89,-99.99,,,0.17,weatherlink.com 1.10,2013-01-30 21:51:00,
2013-01-30 16:06:00,29.2,26.0,29.39,NW,306,10.0,-999.0,89,-99.99,,,0.17,weatherlink.com 1.10,2013-01-30 22:06:00,
2013-01-30 16:21:00,28.9,26.0,29.40,WNW,289,5.0,-999.0,88,-99.99,,,0.17,weatherlink.com 1.10,2013-01-30 22:21:00,
2013-01-30 16:36:00,28.5,25.0,29.41,WNW,296,10.0,-999.0,85,-99.99,,,0.17,weatherlink.com 1.10,2013-01-30 22:36:00,
2013-01-30 16:51:00,28.4,25.0,29.43,West,271,7.0,-999.0,87,-99.99,,,0.17,weatherlink.com 1.10,2013-01-30 22:51:00,
2013-01-30 17:06:00,27.8,24.0,29.44,WNW,300,8.0,-999.0,87,-99.99,,,0.17,weatherlink.com 1.10,2013-01-30 23:06:00,
2013-01-30 17:21:00,27.7,25.0,29.45,WNW,283,6.0,-999.0,88,-99.99,,,0.17,weatherlink.com 1.10,2013-01-30 23:21:00,
2013-01-30 17:36:00,27.7,24.0,29.46,WNW,298,3.0,-999.0,87,-99.99,,,0.17,weatherlink.com 1.10,2013-01-30 23:36:00,
2013-01-30 17:51:00,27.8,24.0,29.48,WNW,294,8.0,-999.0,85,-99.99,,,0.17,weatherlink.com 1.10,2013-01-30 23:51:00,
2013-01-30 18:06:00,27.6,24.0,29.49,SW,223,3.0,-999.0,87,-99.99,,,0.17,weatherlink.com 1.10,2013-01-31 00:06:00,
2013-01-30 18:21:00,27.1,23.0,29.50,NW,313,7.0,-999.0,85,-99.99,,,0.17,weatherlink.com 1.10,2013-01-31 00:21:00,
2013-01-30 18:36:00,26.7,23.0,29.50,WNW,284,4.0,-999.0,85,-99.99,,,0.17,weatherlink.com 1.10,2013-01-31 00:36:00,
2013-01-30 18:51:00,25.8,22.0,29.51,WNW,296,2.0,-999.0,86,-99.99,,,0.17,weatherlink.com 1.10,2013-01-31 00:51:00,
2013-01-30 19:06:00,25.3,22.0,29.53,West,281,2.0,-999.0,86,-99.99,,,0.17,weatherlink.com 1.10,2013-01-31 01:06:00,
2013-01-30 19:21:00,24.7,21.0,29.54,WSW,254,2.0,-999.0,86,-99.99,,,0.17,weatherlink.com 1.10,2013-01-31 01:21:00,
2013-01-30 19:36:00,24.0,20.0,29.55,WNW,294,6.0,-999.0,86,-99.99,,,0.17,weatherlink.com 1.10,2013-01-31 01:36:00,
2013-01-30 19:51:00,23.8,20.0,29.55,WNW,286,4.0,-999.0,86,-99.99,,,0.17,weatherlink.com 1.10,2013-01-31 01:51:00,
2013-01-30 20:06:00,23.7,20.0,29.57,WNW,294,5.0,-999.0,85,-99.99,,,0.17,weatherlink.com 1.10,2013-01-31 02:06:00,
2013-01-30 20:21:00,23.4,19.0,29.57,West,270,3.0,-999.0,84,-99.99,,,0.17,weatherlink.com 1.10,2013-01-31 02:21:00,
2013-01-30 20:36:00,23.2,20.0,29.59,NW,305,8.0,-999.0,87,-99.99,,,0.17,weatherlink.com 1.10,2013-01-31 02:36:00,
2013-01-30 20:51:00,22.4,18.0,29.60,WNW,283,6.0,-999.0,84,-99.99,,,0.17,weatherlink.com 1.10,2013-01-31 02:51:00,
2013-01-30 21:06:00,22.1,18.0,29.61,WNW,294,7.0,-999.0,83,-99.99,,,0.17,weatherlink.com 1.10,2013-01-31 03:06:00,
2013-01-30 21:21:00,22.3,18.0,29.62,West,273,6.0,-999.0,84,-99.99,,,0.17,weatherlink.com 1.10,2013-01-31 03:21:00,
2013-01-30 21:36:00,22.5,18.0,29.62,West,273,4.0,-999.0,84,-99.99,,,0.17,weatherlink.com 1.10,2013-01-31 03:36:00,
2013-01-30 21:51:00,22.5,18.0,29.63,West,277,9.0,-999.0,84,-99.99,,,0.17,weatherlink.com 1.10,2013-01-31 03:51:00,
2013-01-30 22:06:00,22.5,18.0,29.64,WNW,289,7.0,-999.0,83,-99.99,,,0.17,weatherlink.com 1.10,2013-01-31 04:06:00,
2013-01-30 22:21:00,21.8,17.0,29.65,WNW,295,7.0,-999.0,82,-99.99,,,0.17,weatherlink.com 1.10,2013-01-31 04:21:00,
2013-01-30 22:36:00,21.9,18.0,29.66,WNW,292,4.0,-999.0,83,-99.99,,,0.17,weatherlink.com 1.10,2013-01-31 04:36:00,
2013-01-30 22:51:00,21.9,17.0,29.66,WNW,284,5.0,-999.0,82,-99.99,,,0.17,weatherlink.com 1.10,2013-01-31 04:51:00,
2013-01-30 23:06:00,21.8,17.0,29.67,WNW,289,3.0,-999.0,82,-99.99,,,0.17,weatherlink.com 1.10,2013-01-31 05:06:00,
2013-01-30 23:21:00,21.9,18.0,29.68,WNW,287,3.0,-999.0,84,-99.99,,,0.17,weatherlink.com 1.10,2013-01-31 05:21:00,
2013-01-30 23:36:00,21.4,16.0,29.69,SW,217,2.0,-999.0,80,-99.99,,,0.17,weatherlink.com 1.10,2013-01-31 05:36:00,
2013-01-30 23:51:00,20.9,16.0,29.70,WNW,296,5.0,-999.0,80,-99.99,,,0.17,weatherlink.com 1.10,2013-01-31 05:51:00,